(294022) = 2007 TT121 = 2004 DA14

Discovered at Kitt Peak on 2007-10-06 by Spacewatch.

Orbit

Orbit type: Main Belt

Note: WebGL enabled browser required.

epoch2024-03-31.0
epoch JD2460400.5
perihelion date2024-09-20.17890
perihelion JD2460573.67890
argument of perihelion (°)36.23414
ascending node (°)44.40918
inclination (°)3.64156
eccentricity0.0206698
perihelion distance (AU)3.0220122
Tisserand w.r.t. Jupiter3.2
ΔV w.r.t. Earth (km/sec)10.8
semimajor axis (AU)3.0857949
mean anomaly (°)328.51177
mean daily motion (°/day)0.18182490
aphelion distance (AU)3.150
period (years)5.42
P-vector [x]0.16341513
P-vector [y]0.88955952
P-vector [z]0.42659038
Q-vector [x]-0.98555570
Q-vector [y]0.12771814
Q-vector [z]0.11121165
absolute magnitude15.99
phase slope0.15
uncertainty0
referenceMPEC 2024-C163
observations used292
oppositions17
arc length (days)11250
first opposition used1993
last opposition used2023
residual rms (arc-secs)0.70
perturbers coarse indicatorM-v
perturbers precise indicator003Ek
first observation date used1993-01-22.0
last observation date used2023-11-11.0
computer nameMPCLINUX
JD of orbit computation2456670.818764
perihelion JD uncertainty (days)7.5805E-04
argument of perihelion uncertainty (°)1.5298E-04
ascending node uncertainty (°)6.1266E-05
inclination uncertainty (°)4.5526E-06
eccentricity uncertainty 2.8474E-08
perihelion distance uncertainty (AU)9.5049E-08
Minimum Orbit Intersection Distances (in AU)
for orbit epoch: 2460200.5, reference: E2024-CG3
Mercury2.67755
Venus2.29937
Earth2.03449
Mars1.38778
Jupiter1.88461
Saturn6.0421
Uranus15.375
Neptune26.7885

Observations

296 total observations over interval: 1993 01 22.39061 – 2023 11 11.348872
These data are available for download (format description).

Date (UT) J2000 RA J2000 Dec Magn Location Ref
1993 01 22.39061 09 29 34.68 +20 25 37.1   691 – Steward Observatory, Kitt Peak-Spacewatch MPS 232650
1993 01 22.42455 09 29 33.09 +20 25 46.0 20.8 V 691 – Steward Observatory, Kitt Peak-Spacewatch MPS 232650
1993 01 22.45836 09 29 31.54 +20 25 54.4   691 – Steward Observatory, Kitt Peak-Spacewatch MPS 232650
1999 03 20.319270 12 28 34.369 +00 44 53.09 20.30 V 645 – Apache Point-Sloan Digital Sky Survey MPS 232650
1999 03 20.322742 12 28 34.205 +00 44 53.98 21.16   645 – Apache Point-Sloan Digital Sky Survey MPS 232650
2001 09 19.298720 23 05 52.623 -10 39 53.12 20.62 V 645 – Apache Point-Sloan Digital Sky Survey MPS 232650
2001 09 19.302192 23 05 52.462 -10 39 53.94 21.43   645 – Apache Point-Sloan Digital Sky Survey MPS 232650
2004 02 16.37303 10 25 13.44 +15 27 04.0 21.2 V 691 – Steward Observatory, Kitt Peak-Spacewatch MPS 100247
2004 02 16.40018 10 25 12.11 +15 27 11.4 20.6 V 691 – Steward Observatory, Kitt Peak-Spacewatch MPS 100247
2004 02 16.43100 10 25 10.59 +15 27 19.3 20.7 V 691 – Steward Observatory, Kitt Peak-Spacewatch MPS 100247
2004 02 19.32630 10 22 50.99 +15 40 05.2 20.4   704 – Lincoln Laboratory ETS, New Mexico MPS 100247
2004 02 19.34016 10 22 50.29 +15 40 10.1 20.5   704 – Lincoln Laboratory ETS, New Mexico MPS 100247
2004 02 19.35269 10 22 49.73 +15 40 12.4 20.2   704 – Lincoln Laboratory ETS, New Mexico MPS 100247
2007 10 06.31676 02 21 38.05 +12 38 30.9   691 – Steward Observatory, Kitt Peak-Spacewatch MPS 220840
2007 10 06.33438 02 21 37.33 +12 38 28.8   691 – Steward Observatory, Kitt Peak-Spacewatch MPS 220840
2007 10 06.35200 02 21 36.61 +12 38 26.0   691 – Steward Observatory, Kitt Peak-Spacewatch MPS 220840
2007 10 10.26204 02 18 59.02 +12 28 25.7 20.3 V 691 – Steward Observatory, Kitt Peak-Spacewatch MPS 220840
2007 10 10.27966 02 18 58.24 +12 28 23.2 20.2 V 691 – Steward Observatory, Kitt Peak-Spacewatch MPS 220840
2007 10 10.29731 02 18 57.49 +12 28 20.1 20.3 V 691 – Steward Observatory, Kitt Peak-Spacewatch MPS 220840
2007 10 20.24630 02 11 26.13 +11 59 01.3 20.4 V 691 – Steward Observatory, Kitt Peak-Spacewatch MPS 231832
2007 10 20.26390 02 11 25.26 +11 58 58.0 20.3 V 691 – Steward Observatory, Kitt Peak-Spacewatch MPS 231832
2007 10 20.28150 02 11 24.37 +11 58 54.8 20.1 V 691 – Steward Observatory, Kitt Peak-Spacewatch MPS 231832
2007 10 30.30777 02 03 15.40 +11 26 40.3 19.7 V G96 – Mt. Lemmon Survey MPS 223600
2007 10 30.31605 02 03 14.97 +11 26 38.5 19.6 V G96 – Mt. Lemmon Survey MPS 223600
2007 10 30.32440 02 03 14.58 +11 26 36.8 19.9 V G96 – Mt. Lemmon Survey MPS 223600
2007 11 14.19586 01 51 55.31 +10 42 26.7 20.1   704 – Lincoln Laboratory ETS, New Mexico MPS 320692
2007 11 14.20812 01 51 54.75 +10 42 24.6 20.2   704 – Lincoln Laboratory ETS, New Mexico MPS 320692
2007 11 14.23265 01 51 53.65 +10 42 21.4 20.5   704 – Lincoln Laboratory ETS, New Mexico MPS 320692
2007 11 14.24495 01 51 53.18 +10 42 18.4 20.5   704 – Lincoln Laboratory ETS, New Mexico MPS 320692
2007 11 17.17078 01 49 58.00 +10 35 09.2 20.1 V G96 – Mt. Lemmon Survey MPS 232650
2007 11 17.17896 01 49 57.64 +10 35 08.1 20.3 V G96 – Mt. Lemmon Survey MPS 232650
2007 11 17.18714 01 49 57.36 +10 35 07.0 20.3 V G96 – Mt. Lemmon Survey MPS 232650
2007 11 17.19529 01 49 57.03 +10 35 06.1 20.1 V G96 – Mt. Lemmon Survey MPS 232650
2007 12 05.22387 01 41 36.60 +10 09 13.3 20.6 V G96 – Mt. Lemmon Survey MPS 232650
2007 12 05.23154 01 41 36.45 +10 09 13.5 20.8 V G96 – Mt. Lemmon Survey MPS 232650
2007 12 05.23926 01 41 36.31 +10 09 13.2 20.7 V G96 – Mt. Lemmon Survey MPS 232650
2007 12 05.24698 01 41 36.16 +10 09 13.2 20.7 V G96 – Mt. Lemmon Survey MPS 232650
2008 02 09.09185 02 08 09.96 +13 28 40.3 21.7 V G96 – Mt. Lemmon Survey MPS 237641
2008 02 09.09747 02 08 10.32 +13 28 42.9 21.5 V G96 – Mt. Lemmon Survey MPS 237641
2008 02 09.10296 02 08 10.60 +13 28 44.4 22.1 V G96 – Mt. Lemmon Survey MPS 237641
2008 02 09.10847 02 08 10.89 +13 28 46.4 21.4 V G96 – Mt. Lemmon Survey MPS 237641
2008 12 29.27438 08 18 19.83 +24 41 26.9 21.4 V G96 – Mt. Lemmon Survey MPS 270199
2008 12 29.28399 08 18 19.44 +24 41 29.1 20.9 V G96 – Mt. Lemmon Survey MPS 270199
2008 12 29.29128 08 18 19.08 +24 41 30.8 20.9 V G96 – Mt. Lemmon Survey MPS 270199
2008 12 29.29860 08 18 18.79 +24 41 31.9 20.7 V G96 – Mt. Lemmon Survey MPS 270199
2010 04 04.20548 13 26 03.58 -06 35 22.4 20.3 V 691 – Steward Observatory, Kitt Peak-Spacewatch MPS 320692
2010 04 04.22311 13 26 02.73 -06 35 18.7 20.1 V 691 – Steward Observatory, Kitt Peak-Spacewatch MPS 320692
2010 04 04.24073 13 26 01.92 -06 35 14.8 20.2 V 691 – Steward Observatory, Kitt Peak-Spacewatch MPS 320692
2010 04 21.15333 13 12 58.00 -05 33 57.7   691 – Steward Observatory, Kitt Peak-Spacewatch MPS 323487
2010 04 21.17098 13 12 57.20 -05 33 54.4   691 – Steward Observatory, Kitt Peak-Spacewatch MPS 323487
2010 04 21.19208 13 12 56.23 -05 33 50.2   691 – Steward Observatory, Kitt Peak-Spacewatch MPS 323487
2010 05 09.21002 13 01 24.06 -04 46 04.8 20.2 V G96 – Mt. Lemmon Survey MPS 326394
2010 05 09.21718 13 01 23.80 -04 46 04.4 20.7 V G96 – Mt. Lemmon Survey MPS 326394
2010 05 09.22431 13 01 23.59 -04 46 04.1 20.6 V G96 – Mt. Lemmon Survey MPS 326394
2010 05 09.23143 13 01 23.37 -04 46 03.5 20.4 V G96 – Mt. Lemmon Survey MPS 326394
2010 05 21.17903 12 56 41.85 -04 33 03.9 20.9 V G96 – Mt. Lemmon Survey MPS 327374
2010 05 21.18669 12 56 41.71 -04 33 04.6 20.5 V G96 – Mt. Lemmon Survey MPS 327374
2010 05 21.19442 12 56 41.53 -04 33 04.0 20.9 V G96 – Mt. Lemmon Survey MPS 327374
2010 05 21.20220 12 56 41.46 -04 33 03.8 20.6 V G96 – Mt. Lemmon Survey MPS 327374
2012 08 25.48824 00 24 54.772 -01 34 49.05 20.5 w F51 – Pan-STARRS 1, Haleakala MPS 431013
2012 08 25.50245 00 24 54.357 -01 34 51.55 20.6 w F51 – Pan-STARRS 1, Haleakala MPS 431013
2012 08 25.51670 00 24 53.946 -01 34 54.23 20.4 w F51 – Pan-STARRS 1, Haleakala MPS 431013
2012 09 21.27494 00 07 34.28 -03 20 07.2 20.0 V G96 – Mt. Lemmon Survey MPS 433253
2012 09 21.28124 00 07 33.96 -03 20 08.5 20.0 V G96 – Mt. Lemmon Survey MPS 433253
2012 09 21.28744 00 07 33.67 -03 20 10.6 19.7 V G96 – Mt. Lemmon Survey MPS 433253
2012 09 21.29377 00 07 33.38 -03 20 11.9 20.0 V G96 – Mt. Lemmon Survey MPS 433253
2012 10 19.341002 23 48 10.255 -04 52 15.22 20.5 r F51 – Pan-STARRS 1, Haleakala MPS 439389
2012 10 19.352191 23 48 09.894 -04 52 16.41 20.5 r F51 – Pan-STARRS 1, Haleakala MPS 439389
2013 01 08.22079 00 08 35.899 -00 41 09.13 21.7 w F51 – Pan-STARRS 1, Haleakala MPS 450818
2013 01 08.22475 00 08 36.115 -00 41 07.20 21.7 w F51 – Pan-STARRS 1, Haleakala MPS 450818
2013 11 24.60629 05 47 52.392 +26 24 13.49 20.3 i F51 – Pan-STARRS 1, Haleakala MPS 489817
2013 11 24.62028 05 47 51.749 +26 24 14.21 20.3 i F51 – Pan-STARRS 1, Haleakala MPS 489817
2013 12 10.35734 05 34 28.83 +26 37 02.2 19.9 V G96 – Mt. Lemmon Survey MPS 491941
2013 12 10.36251 05 34 28.53 +26 37 02.4 20.1 V G96 – Mt. Lemmon Survey MPS 491941
2013 12 10.36770 05 34 28.25 +26 37 02.6 19.9 V G96 – Mt. Lemmon Survey MPS 491941
2013 12 10.37287 05 34 27.92 +26 37 02.3 19.7 V G96 – Mt. Lemmon Survey MPS 491941
2013 12 10.38094 05 34 27.49 +26 37 02.7 19.8 V G96 – Mt. Lemmon Survey MPS 491941
2013 12 10.38655 05 34 27.15 +26 37 02.7 19.9 V G96 – Mt. Lemmon Survey MPS 491941
2013 12 10.39217 05 34 26.83 +26 37 02.7 19.7 V G96 – Mt. Lemmon Survey MPS 491941
2013 12 10.39778 05 34 26.52 +26 37 03.0 20.3 V G96 – Mt. Lemmon Survey MPS 491941
2013 12 25.29732 05 20 35.116 +26 37 40.73 20.5 w F51 – Pan-STARRS 1, Haleakala MPS 493295
2013 12 25.31049 05 20 34.393 +26 37 40.61 20.6 w F51 – Pan-STARRS 1, Haleakala MPS 493295
2013 12 25.33691 05 20 32.939 +26 37 40.11 20.5 w F51 – Pan-STARRS 1, Haleakala MPS 493295
2015 01 29.52408 11 44 51.733 +06 24 50.65 20.5 i F51 – Pan-STARRS 1, Haleakala MPS 569340
2015 01 29.53549 11 44 51.546 +06 24 52.55 20.6 i F51 – Pan-STARRS 1, Haleakala MPS 569340
2015 01 29.54686 11 44 51.384 +06 24 54.13 20.5 i F51 – Pan-STARRS 1, Haleakala MPS 569340
2015 01 29.55824 11 44 51.190 +06 24 55.57 20.6 i F51 – Pan-STARRS 1, Haleakala MPS 569340
2015 01 31.53761 11 44 21.111 +06 29 44.35 20.4 i F51 – Pan-STARRS 1, Haleakala MPS 570872
